START_TIME,STEP,MOV.,M35,t_acc.,PL05,t_acc.,PL06,t_acc.,PL07,t_acc.
1979-07-12 15:00:24.280 ,1,0,1.,4.8,200.,4.8,20.,4.8,6.,4.8
1979-07-12 15:00:29.080 ,1,0,0.,4.8,172.,4.8,24.,4.8,7.,4.8
1979-07-12 15:00:33.880 ,1,0,0.,4.8,180.,4.8,25.,4.8,3.,4.8
1979-07-12 15:00:38.680 ,1,0,0.,4.8,196.,4.8,16.,4.8,7.,4.8
1979-07-12 15:00:43.480 ,1,0,0.,4.8,184.,4.8,15.,4.8,7.,4.8
1979-07-12 15:00:48.280 ,2,0,1.,4.8,180.,4.8,25.,4.8,7.,4.8
1979-07-12 15:00:53.080 ,2,0,0.,4.8,160.,4.8,13.,4.8,7.,4.8
1979-07-12 15:00:57.880 ,2,0,2.,4.8,140.,4.8,13.,4.8,7.,4.8
1979-07-12 15:01:02.680 ,2,0,2.,4.8,122.,4.8,21.,4.8,10.,4.8
1979-07-12 15:01:07.480 ,2,0,0.,4.8,148.,4.8,20.,4.8,5.,4.8
1979-07-12 15:01:12.280 ,2,0,1.,4.8,126.,4.8,15.,4.8,6.,4.8
1979-07-12 15:01:17.080 ,2,0,2.,4.8,156.,4.8,23.,4.8,9.,4.8
1979-07-12 15:01:21.880 ,2,0,1.,4.8,128.,4.8,21.,4.8,10.,4.8
1979-07-12 15:01:26.680 ,2,0,1.,4.8,160.,4.8,22.,4.8,7.,4.8
1979-07-12 15:01:31.480 ,2,0,1.,4.8,136.,4.8,33.,4.8,4.,4.8
1979-07-12 15:01:36.280 ,3,0,1.,4.8,164.,4.8,19.,4.8,12.,4.8
1979-07-12 15:01:41.080 ,3,0,1.,4.8,144.,4.8,30.,4.8,7.,4.8
1979-07-12 15:01:45.880 ,3,0,1.,4.8,136.,4.8,25.,4.8,9.,4.8
1979-07-12 15:01:50.680 ,3,0,1.,4.8,140.,4.8,26.,4.8,14.,4.8
1979-07-12 15:01:55.480 ,3,0,0.,4.8,180.,4.8,22.,4.8,4.,4.8
1979-07-12 15:02:00.280 ,3,0,0.,4.8,140.,4.8,17.,4.8,8.,4.8
1979-07-12 15:02:05.080 ,3,0,0.,4.8,156.,4.8,18.,4.8,11.,4.8
1979-07-12 15:02:09.880 ,3,0,0.,4.8,168.,4.8,20.,4.8,10.,4.8
1979-07-12 15:02:14.680 ,3,0,0.,4.8,148.,4.8,19.,4.8,10.,4.8
1979-07-12 15:02:19.480 ,3,0,2.,4.8,172.,4.8,27.,4.8,11.,4.8
1979-07-12 15:02:24.280 ,4,0,0.,4.8,172.,4.8,25.,4.8,12.,4.8
1979-07-12 15:02:29.080 ,4,0,0.,4.8,164.,4.8,15.,4.8,6.,4.8
1979-07-12 15:02:33.880 ,4,0,2.,4.8,148.,4.8,24.,4.8,6.,4.8
1979-07-12 15:02:38.680 ,4,0,0.,4.8,180.,4.8,26.,4.8,6.,4.8
1979-07-12 15:02:43.480 ,4,0,1.,4.8,164.,4.8,30.,4.8,10.,4.8
1979-07-12 15:02:48.280 ,4,0,1.,4.8,160.,4.8,25.,4.8,9.,4.8
1979-07-12 15:02:53.080 ,4,0,1.,4.8,164.,4.8,19.,4.8,9.,4.8
1979-07-12 15:02:57.880 ,4,0,1.,4.8,160.,4.8,22.,4.8,5.,4.8
1979-07-12 15:03:02.680 ,4,0,1.,4.8,160.,4.8,19.,4.8,6.,4.8
1979-07-12 15:03:07.480 ,4,0,0.,4.8,144.,4.8,17.,4.8,15.,4.8
1979-07-12 15:03:12.280 ,5,0,0.,4.8,184.,4.8,28.,4.8,12.,4.8
1979-07-12 15:03:17.080 ,5,0,0.,4.8,152.,4.8,20.,4.8,2.,4.8
1979-07-12 15:03:21.880 ,5,0,0.,4.8,264.,4.8,39.,4.8,9.,4.8
1979-07-12 15:03:26.680 ,5,0,2.,4.8,288.,4.8,45.,4.8,15.,4.8
1979-07-12 15:03:31.480 ,5,0,0.,4.8,288.,4.8,46.,4.8,17.,4.8
1979-07-12 15:03:36.280 ,5,0,0.,4.8,320.,4.8,66.,4.8,17.,4.8
1979-07-12 15:03:41.080 ,5,0,1.,4.8,352.,4.8,72.,4.8,10.,4.8
1979-07-12 15:03:45.880 ,5,0,0.,4.8,376.,4.8,68.,4.8,14.,4.8
1979-07-12 15:03:50.680 ,5,0,0.,4.8,392.,4.8,56.,4.8,19.,4.8
1979-07-12 15:03:55.480 ,5,0,3.,4.8,384.,4.8,66.,4.8,19.,4.8
1979-07-12 15:04:00.280 ,6,0,0.,4.8,408.,4.8,74.,4.8,15.,4.8
1979-07-12 15:04:05.080 ,6,0,1.,4.8,456.,4.8,70.,4.8,21.,4.8
1979-07-12 15:04:09.880 ,6,0,0.,4.8,400.,4.8,53.,4.8,16.,4.8
1979-07-12 15:04:14.680 ,6,0,0.,4.8,392.,4.8,55.,4.8,18.,4.8
1979-07-12 15:04:19.480 ,6,0,1.,4.8,296.,4.8,50.,4.8,15.,4.8
1979-07-12 15:04:24.280 ,6,0,1.,4.8,264.,4.8,52.,4.8,14.,4.8
1979-07-12 15:04:29.080 ,6,0,2.,4.8,208.,4.8,49.,4.8,9.,4.8
1979-07-12 15:04:33.880 ,6,0,2.,4.8,180.,4.8,30.,4.8,13.,4.8
1979-07-12 15:04:38.680 ,6,0,2.,4.8,208.,4.8,35.,4.8,16.,4.8
1979-07-12 15:04:43.480 ,6,0,2.,4.8,172.,4.8,21.,4.8,8.,4.8
1979-07-12 15:04:48.280 ,7,0,1.,4.8,200.,4.8,33.,4.8,17.,4.8
1979-07-12 15:04:53.080 ,7,0,0.,4.8,188.,4.8,20.,4.8,6.,4.8
1979-07-12 15:04:57.880 ,7,0,0.,4.8,9.,4.8,1.,4.8,0.,4.8
1979-07-12 15:05:02.680 ,7,0,0.,4.8,2.,4.8,0.,4.8,0.,4.8
1979-07-12 15:05:07.480 ,7,0,0.,4.8,5.,4.8,0.,4.8,0.,4.8
1979-07-12 15:05:12.280 ,7,0,0.,4.8,3.,4.8,0.,4.8,0.,4.8
1979-07-12 15:05:17.080 ,7,0,0.,4.8,2.,4.8,0.,4.8,0.,4.8
1979-07-12 15:05:21.880 ,7,0,0.,4.8,3.,4.8,0.,4.8,0.,4.8
1979-07-12 15:05:26.680 ,7,0,0.,4.8,1.,4.8,1.,4.8,0.,4.8
1979-07-12 15:05:31.480 ,7,0,0.,4.8,1.,4.8,0.,4.8,1.,4.8
1979-07-12 15:05:36.280 ,7,0,0.,4.8,2.,4.8,0.,4.8,0.,4.8
1979-07-12 15:05:41.080 ,7,0,0.,4.8,1.,4.8,0.,4.8,1.,4.8
1979-07-12 15:05:45.880 ,7,0,0.,4.8,4.,4.8,0.,4.8,0.,4.8
1979-07-12 15:05:50.680 ,7,0,0.,4.8,4.,4.8,0.,4.8,0.,4.8
1979-07-12 15:05:55.480 ,7,0,0.,4.8,5.,4.8,0.,4.8,0.,4.8
1979-07-12 15:06:00.280 ,7,0,0.,4.8,4.,4.8,0.,4.8,0.,4.8
1979-07-12 15:06:05.080 ,7,0,0.,4.8,2.,4.8,0.,4.8,0.,4.8
1979-07-12 15:06:09.880 ,7,0,0.,4.8,1.,4.8,1.,4.8,0.,4.8
1979-07-12 15:06:14.680 ,7,0,0.,4.8,6.,4.8,0.,4.8,0.,4.8
1979-07-12 15:06:19.480 ,7,0,0.,4.8,5.,4.8,1.,4.8,0.,4.8
1979-07-12 15:06:24.280 ,6,0,0.,4.8,3.,4.8,0.,4.8,0.,4.8
1979-07-12 15:06:29.080 ,6,0,0.,4.8,4.,4.8,0.,4.8,1.,4.8
1979-07-12 15:06:33.880 ,6,0,1.,4.8,208.,4.8,24.,4.8,3.,4.8
1979-07-12 15:06:38.680 ,6,0,0.,4.8,164.,4.8,31.,4.8,10.,4.8
1979-07-12 15:06:43.480 ,6,0,1.,4.8,180.,4.8,23.,4.8,7.,4.8
1979-07-12 15:06:48.280 ,6,0,0.,4.8,184.,4.8,19.,4.8,9.,4.8
1979-07-12 15:06:53.080 ,6,0,0.,4.8,168.,4.8,26.,4.8,10.,4.8
1979-07-12 15:06:57.880 ,6,0,1.,4.8,200.,4.8,26.,4.8,4.,4.8
1979-07-12 15:07:02.680 ,6,0,0.,4.8,172.,4.8,19.,4.8,10.,4.8
1979-07-12 15:07:07.480 ,6,0,0.,4.8,180.,4.8,21.,4.8,2.,4.8
1979-07-12 15:07:12.280 ,5,0,0.,4.8,168.,4.8,23.,4.8,10.,4.8
1979-07-12 15:07:17.080 ,5,0,0.,4.8,180.,4.8,20.,4.8,6.,4.8
1979-07-12 15:07:21.880 ,5,0,0.,4.8,224.,4.8,26.,4.8,7.,4.8
1979-07-12 15:07:26.680 ,5,0,2.,4.8,212.,4.8,29.,4.8,5.,4.8
1979-07-12 15:07:31.480 ,5,0,0.,4.8,216.,4.8,25.,4.8,4.,4.8
1979-07-12 15:07:36.280 ,5,0,0.,4.8,180.,4.8,26.,4.8,8.,4.8
1979-07-12 15:07:41.080 ,5,0,0.,4.8,196.,4.8,33.,4.8,8.,4.8
1979-07-12 15:07:45.880 ,5,0,1.,4.8,208.,4.8,24.,4.8,6.,4.8
1979-07-12 15:07:50.680 ,5,0,1.,4.8,204.,4.8,28.,4.8,16.,4.8
1979-07-12 15:07:55.480 ,5,0,0.,4.8,240.,4.8,29.,4.8,9.,4.8
1979-07-12 15:08:00.280 ,4,0,0.,4.8,208.,4.8,24.,4.8,13.,4.8
1979-07-12 15:08:05.080 ,4,0,2.,4.8,220.,4.8,24.,4.8,13.,4.8
1979-07-12 15:08:09.880 ,4,0,1.,4.8,248.,4.8,41.,4.8,13.,4.8
1979-07-12 15:08:14.680 ,4,0,2.,4.8,244.,4.8,35.,4.8,11.,4.8
1979-07-12 15:08:19.480 ,4,0,1.,4.8,272.,4.8,51.,4.8,17.,4.8
1979-07-12 15:08:24.280 ,0,0,0.,4.8,232.,4.8,42.,4.8,10.,4.8
1979-07-12 15:08:29.080 ,0,0,1.,4.8,224.,4.8,27.,4.8,18.,4.8
1979-07-12 15:08:33.880 ,0,0,0.,4.8,232.,4.8,34.,4.8,11.,4.8
1979-07-12 15:08:38.680 ,0,0,0.,4.8,212.,4.8,26.,4.8,16.,4.8
1979-07-12 15:08:43.480 ,0,0,2.,4.8,204.,4.8,21.,4.8,17.,4.8
1979-07-12 15:08:48.280 ,3,0,0.,4.8,216.,4.8,41.,4.8,17.,4.8
1979-07-12 15:08:53.080 ,3,0,1.,4.8,212.,4.8,27.,4.8,18.,4.8
1979-07-12 15:08:57.880 ,3,0,0.,4.8,204.,4.8,33.,4.8,17.,4.8
1979-07-12 15:09:02.680 ,3,0,1.,4.8,204.,4.8,32.,4.8,9.,4.8
1979-07-12 15:09:07.480 ,3,0,0.,4.8,212.,4.8,34.,4.8,7.,4.8
1979-07-12 15:09:12.280 ,3,0,1.,4.8,232.,4.8,34.,4.8,10.,4.8
1979-07-12 15:09:17.080 ,3,0,1.,4.8,208.,4.8,39.,4.8,10.,4.8
1979-07-12 15:09:21.880 ,3,0,0.,4.8,216.,4.8,34.,4.8,9.,4.8
1979-07-12 15:09:26.680 ,3,0,1.,4.8,236.,4.8,25.,4.8,8.,4.8
1979-07-12 15:09:31.480 ,3,0,0.,4.8,216.,4.8,31.,4.8,9.,4.8
1979-07-12 15:09:36.280 ,2,0,0.,4.8,192.,4.8,28.,4.8,7.,4.8
1979-07-12 15:09:41.080 ,2,0,1.,4.8,208.,4.8,34.,4.8,12.,4.8
1979-07-12 15:09:45.880 ,2,0,1.,4.8,188.,4.8,28.,4.8,17.,4.8
1979-07-12 15:09:50.680 ,2,0,0.,4.8,180.,4.8,35.,4.8,13.,4.8
1979-07-12 15:09:55.480 ,2,0,0.,4.8,216.,4.8,32.,4.8,12.,4.8
1979-07-12 15:10:00.280 ,2,0,0.,4.8,208.,4.8,27.,4.8,11.,4.8
1979-07-12 15:10:05.080 ,2,0,2.,4.8,212.,4.8,27.,4.8,10.,4.8
1979-07-12 15:10:09.880 ,2,0,0.,4.8,216.,4.8,31.,4.8,5.,4.8
1979-07-12 15:10:14.680 ,2,0,0.,4.8,192.,4.8,34.,4.8,6.,4.8
1979-07-12 15:10:19.480 ,2,0,1.,4.8,212.,4.8,26.,4.8,9.,4.8
1979-07-12 15:10:24.280 ,1,0,0.,4.8,232.,4.8,27.,4.8,10.,4.8
1979-07-12 15:10:29.080 ,1,0,0.,4.8,216.,4.8,28.,4.8,7.,4.8
1979-07-12 15:10:33.880 ,1,0,0.,4.8,228.,4.8,35.,4.8,8.,4.8
1979-07-12 15:10:38.680 ,1,0,0.,4.8,244.,4.8,34.,4.8,13.,4.8
1979-07-12 15:10:43.480 ,1,0,0.,4.8,224.,4.8,30.,4.8,8.,4.8
1979-07-12 15:10:48.280 ,1,0,0.,4.8,244.,4.8,31.,4.8,9.,4.8
1979-07-12 15:10:53.080 ,1,0,0.,4.8,224.,4.8,35.,4.8,8.,4.8
1979-07-12 15:10:57.880 ,1,0,0.,4.8,244.,4.8,31.,4.8,16.,4.8
1979-07-12 15:11:02.680 ,1,0,0.,4.8,228.,4.8,29.,4.8,9.,4.8
1979-07-12 15:11:07.480 ,1,0,2.,4.8,212.,4.8,36.,4.8,11.,4.8
1979-07-12 15:11:12.280 ,0,0,0.,4.8,196.,4.8,29.,4.8,12.,4.8
1979-07-12 15:11:17.080 ,0,0,0.,4.8,212.,4.8,23.,4.8,9.,4.8
1979-07-12 15:11:21.880 ,0,0,0.,4.8,176.,4.8,23.,4.8,7.,4.8
1979-07-12 15:11:26.680 ,0,0,0.,4.8,176.,4.8,29.,4.8,9.,4.8
1979-07-12 15:11:31.480 ,0,0,0.,4.8,204.,4.8,27.,4.8,4.,4.8
1979-07-12 15:11:36.280 ,0,0,1.,4.8,204.,4.8,21.,4.8,11.,4.8
1979-07-12 15:11:41.080 ,0,0,0.,4.8,184.,4.8,22.,4.8,3.,4.8
1979-07-12 15:11:45.880 ,0,0,0.,4.8,168.,4.8,26.,4.8,9.,4.8
1979-07-12 15:11:50.680 ,0,0,0.,4.8,160.,4.8,24.,4.8,6.,4.8
1979-07-12 15:11:55.480 ,0,0,0.,4.8,184.,4.8,22.,4.8,12.,4.8
1979-07-12 15:12:00.280 ,0,0,1.,4.8,192.,4.8,28.,4.8,7.,4.8
1979-07-12 15:12:05.080 ,0,0,1.,4.8,168.,4.8,20.,4.8,12.,4.8
1979-07-12 15:12:09.880 ,0,0,0.,4.8,164.,4.8,29.,4.8,9.,4.8
1979-07-12 15:12:14.680 ,0,0,0.,4.8,160.,4.8,16.,4.8,3.,4.8
1979-07-12 15:12:19.480 ,0,0,1.,4.8,180.,4.8,18.,4.8,10.,4.8
1979-07-12 15:12:24.280 ,0,0,0.,4.8,152.,4.8,15.,4.8,9.,4.8
1979-07-12 15:12:29.080 ,0,0,0.,4.8,164.,4.8,29.,4.8,4.,4.8
1979-07-12 15:12:33.880 ,0,0,0.,4.8,152.,4.8,24.,4.8,5.,4.8
1979-07-12 15:12:38.680 ,0,0,0.,4.8,168.,4.8,20.,4.8,10.,4.8
1979-07-12 15:12:43.480 ,0,0,0.,4.8,168.,4.8,21.,4.8,9.,4.8
1979-07-12 15:12:48.280 ,1,0,0.,4.8,164.,4.8,18.,4.8,6.,4.8
1979-07-12 15:12:53.080 ,1,0,1.,4.8,176.,4.8,27.,4.8,11.,4.8
1979-07-12 15:12:57.880 ,1,0,0.,4.8,164.,4.8,19.,4.8,11.,4.8
1979-07-12 15:13:02.680 ,1,0,0.,4.8,180.,4.8,32.,4.8,8.,4.8
1979-07-12 15:13:07.480 ,1,0,1.,4.8,168.,4.8,20.,4.8,8.,4.8
1979-07-12 15:13:12.280 ,1,0,1.,4.8,160.,4.8,19.,4.8,12.,4.8
1979-07-12 15:13:17.080 ,1,0,0.,4.8,160.,4.8,21.,4.8,8.,4.8
1979-07-12 15:13:21.880 ,1,0,1.,4.8,168.,4.8,14.,4.8,5.,4.8
1979-07-12 15:13:26.680 ,1,0,0.,4.8,168.,4.8,17.,4.8,4.,4.8
1979-07-12 15:13:31.480 ,1,0,0.,4.8,172.,4.8,31.,4.8,8.,4.8
1979-07-12 15:13:36.280 ,2,0,,0,,0,,0,,0
1979-07-12 15:13:41.080 ,2,0,0.,4.8,184.,4.8,15.,4.8,7.,4.8
1979-07-12 15:13:45.880 ,2,0,1.,4.8,236.,4.8,23.,4.8,9.,4.8
1979-07-12 15:13:50.680 ,2,0,1.,4.8,288.,4.8,11.,4.8,7.,4.8
1979-07-12 15:13:55.480 ,2,0,0.,4.8,296.,4.8,22.,4.8,10.,4.8
1979-07-12 15:14:00.280 ,2,0,0.,4.8,344.,4.8,18.,4.8,10.,4.8
1979-07-12 15:14:05.080 ,2,0,1.,4.8,416.,4.8,19.,4.8,11.,4.8
1979-07-12 15:14:09.880 ,2,0,0.,4.8,392.,4.8,25.,4.8,9.,4.8
1979-07-12 15:14:14.680 ,2,0,0.,4.8,384.,4.8,38.,4.8,8.,4.8
1979-07-12 15:14:19.480 ,2,0,0.,4.8,440.,4.8,36.,4.8,12.,4.8
1979-07-12 15:14:24.280 ,3,0,1.,4.8,512.,4.8,50.,4.8,16.,4.8
1979-07-12 15:14:29.080 ,3,0,0.,4.8,544.,4.8,66.,4.8,10.,4.8
1979-07-12 15:14:33.880 ,3,0,2.,4.8,944.,4.8,152.,4.8,37.,4.8
1979-07-12 15:14:38.680 ,3,0,1.,4.8,912.,4.8,164.,4.8,34.,4.8
1979-07-12 15:14:43.480 ,3,0,0.,4.8,864.,4.8,160.,4.8,49.,4.8
1979-07-12 15:14:48.280 ,3,0,0.,4.8,880.,4.8,140.,4.8,45.,4.8
1979-07-12 15:14:53.080 ,3,0,1.,4.8,768.,4.8,148.,4.8,43.,4.8
1979-07-12 15:14:57.880 ,3,0,0.,4.8,576.,4.8,94.,4.8,42.,4.8
1979-07-12 15:15:02.680 ,3,0,1.,4.8,408.,4.8,52.,4.8,15.,4.8
1979-07-12 15:15:07.480 ,3,0,2.,4.8,456.,4.8,53.,4.8,10.,4.8
1979-07-12 15:15:12.280 ,4,0,1.,4.8,608.,4.8,63.,4.8,20.,4.8
1979-07-12 15:15:17.080 ,4,0,1.,4.8,672.,4.8,110.,4.8,24.,4.8
1979-07-12 15:15:21.880 ,4,0,1.,4.8,656.,4.8,100.,4.8,27.,4.8
1979-07-12 15:15:26.680 ,4,0,0.,4.8,592.,4.8,78.,4.8,23.,4.8
1979-07-12 15:15:31.480 ,4,0,0.,4.8,512.,4.8,64.,4.8,13.,4.8
1979-07-12 15:15:36.280 ,4,0,0.,4.8,512.,4.8,55.,4.8,13.,4.8
1979-07-12 15:15:41.080 ,4,0,0.,4.8,344.,4.8,32.,4.8,10.,4.8
1979-07-12 15:15:45.880 ,4,0,0.,4.8,232.,4.8,27.,4.8,7.,4.8
1979-07-12 15:15:50.680 ,4,0,0.,4.8,184.,4.8,38.,4.8,17.,4.8
1979-07-12 15:15:55.480 ,4,0,0.,4.8,196.,4.8,33.,4.8,11.,4.8
1979-07-12 15:16:00.280 ,5,0,0.,4.8,180.,4.8,22.,4.8,11.,4.8
1979-07-12 15:16:05.080 ,5,0,0.,4.8,184.,4.8,33.,4.8,11.,4.8
1979-07-12 15:16:09.880 ,5,0,0.,4.8,344.,4.8,45.,4.8,8.,4.8
1979-07-12 15:16:14.680 ,5,0,0.,4.8,344.,4.8,43.,4.8,4.,4.8
1979-07-12 15:16:19.480 ,5,0,0.,4.8,288.,4.8,45.,4.8,14.,4.8
1979-07-12 15:16:24.280 ,5,0,0.,4.8,304.,4.8,36.,4.8,11.,4.8
1979-07-12 15:16:29.080 ,5,0,0.,4.8,296.,4.8,41.,4.8,8.,4.8
1979-07-12 15:16:33.880 ,5,0,0.,4.8,280.,4.8,28.,4.8,8.,4.8
1979-07-12 15:16:38.680 ,5,0,0.,4.8,296.,4.8,39.,4.8,6.,4.8
1979-07-12 15:16:43.480 ,5,0,2.,4.8,312.,4.8,34.,4.8,9.,4.8
1979-07-12 15:16:48.280 ,6,0,0.,4.8,280.,4.8,30.,4.8,6.,4.8
1979-07-12 15:16:53.080 ,6,0,0.,4.8,280.,4.8,22.,4.8,8.,4.8
1979-07-12 15:16:57.880 ,6,0,0.,4.8,328.,4.8,51.,4.8,14.,4.8
1979-07-12 15:17:02.680 ,6,0,2.,4.8,312.,4.8,45.,4.8,11.,4.8
1979-07-12 15:17:07.480 ,6,0,0.,4.8,296.,4.8,45.,4.8,15.,4.8
1979-07-12 15:17:12.280 ,6,0,0.,4.8,272.,4.8,51.,4.8,19.,4.8
1979-07-12 15:17:17.080 ,6,0,0.,4.8,296.,4.8,33.,4.8,15.,4.8
1979-07-12 15:17:21.880 ,6,0,1.,4.8,264.,4.8,58.,4.8,7.,4.8
1979-07-12 15:17:26.680 ,6,0,0.,4.8,312.,4.8,40.,4.8,12.,4.8
1979-07-12 15:17:31.480 ,6,0,0.,4.8,252.,4.8,26.,4.8,11.,4.8
1979-07-12 15:17:36.280 ,7,0,0.,4.8,252.,4.8,43.,4.8,13.,4.8
1979-07-12 15:17:41.080 ,7,0,1.,4.8,248.,4.8,45.,4.8,3.,4.8
1979-07-12 15:17:45.880 ,7,0,0.,4.8,7.,4.8,1.,4.8,0.,4.8
1979-07-12 15:17:50.680 ,7,0,0.,4.8,4.,4.8,0.,4.8,0.,4.8
1979-07-12 15:17:55.480 ,7,0,0.,4.8,2.,4.8,0.,4.8,1.,4.8
1979-07-12 15:18:00.280 ,7,0,0.,4.8,6.,4.8,0.,4.8,0.,4.8
1979-07-12 15:18:05.080 ,7,0,0.,4.8,9.,4.8,0.,4.8,0.,4.8
1979-07-12 15:18:09.880 ,7,0,0.,4.8,3.,4.8,0.,4.8,0.,4.8
1979-07-12 15:18:14.680 ,7,0,0.,4.8,5.,4.8,0.,4.8,0.,4.8
1979-07-12 15:18:19.480 ,7,0,0.,4.8,3.,4.8,0.,4.8,0.,4.8
1979-07-12 15:18:24.280 ,7,0,0.,4.8,5.,4.8,1.,4.8,0.,4.8
1979-07-12 15:18:29.080 ,7,0,0.,4.8,4.,4.8,1.,4.8,0.,4.8
1979-07-12 15:18:33.880 ,7,0,0.,4.8,4.,4.8,0.,4.8,0.,4.8
1979-07-12 15:18:38.680 ,7,0,0.,4.8,2.,4.8,0.,4.8,0.,4.8
1979-07-12 15:18:43.480 ,7,0,0.,4.8,2.,4.8,0.,4.8,0.,4.8
1979-07-12 15:18:48.280 ,7,0,0.,4.8,4.,4.8,0.,4.8,1.,4.8
1979-07-12 15:18:53.080 ,7,0,0.,4.8,6.,4.8,0.,4.8,0.,4.8
1979-07-12 15:18:57.880 ,7,0,0.,4.8,6.,4.8,0.,4.8,0.,4.8
1979-07-12 15:19:02.680 ,7,0,0.,4.8,7.,4.8,0.,4.8,0.,4.8
1979-07-12 15:19:07.480 ,7,0,0.,4.8,5.,4.8,1.,4.8,0.,4.8
1979-07-12 15:19:12.280 ,6,0,0.,4.8,2.,4.8,0.,4.8,0.,4.8
1979-07-12 15:19:17.080 ,6,0,0.,4.8,4.,4.8,0.,4.8,0.,4.8
1979-07-12 15:19:21.880 ,6,0,1.,4.8,168.,4.8,23.,4.8,4.,4.8
1979-07-12 15:19:26.680 ,6,0,0.,4.8,180.,4.8,27.,4.8,9.,4.8
1979-07-12 15:19:31.480 ,6,0,0.,4.8,164.,4.8,22.,4.8,6.,4.8
1979-07-12 15:19:36.280 ,6,0,0.,4.8,152.,4.8,22.,4.8,8.,4.8
1979-07-12 15:19:41.080 ,6,0,2.,4.8,180.,4.8,12.,4.8,9.,4.8
1979-07-12 15:19:45.880 ,6,0,0.,4.8,164.,4.8,24.,4.8,7.,4.8
1979-07-12 15:19:50.680 ,6,0,0.,4.8,168.,4.8,22.,4.8,13.,4.8
1979-07-12 15:19:55.480 ,6,0,0.,4.8,172.,4.8,28.,4.8,7.,4.8
1979-07-12 15:20:00.280 ,5,0,0.,4.8,200.,4.8,15.,4.8,9.,4.8
1979-07-12 15:20:05.080 ,5,0,0.,4.8,184.,4.8,25.,4.8,6.,4.8
1979-07-12 15:20:09.880 ,5,0,0.,4.8,156.,4.8,28.,4.8,10.,4.8
1979-07-12 15:20:14.680 ,5,0,1.,4.8,216.,4.8,32.,4.8,7.,4.8
1979-07-12 15:20:19.480 ,5,0,0.,4.8,200.,4.8,25.,4.8,10.,4.8
1979-07-12 15:20:24.280 ,5,0,0.,4.8,196.,4.8,28.,4.8,11.,4.8
1979-07-12 15:20:29.080 ,5,0,0.,4.8,176.,4.8,38.,4.8,8.,4.8
1979-07-12 15:20:33.880 ,5,0,0.,4.8,172.,4.8,32.,4.8,8.,4.8
1979-07-12 15:20:38.680 ,5,0,1.,4.8,204.,4.8,28.,4.8,4.,4.8
1979-07-12 15:20:43.480 ,5,0,0.,4.8,160.,4.8,41.,4.8,7.,4.8
1979-07-12 15:21:36.280 ,0,0,1.,4.8,212.,4.8,33.,4.8,9.,4.8
1979-07-12 15:21:41.080 ,0,0,0.,4.8,212.,4.8,36.,4.8,9.,4.8
1979-07-12 15:21:45.880 ,0,0,0.,4.8,148.,4.8,26.,4.8,8.,4.8
1979-07-12 15:21:50.680 ,0,0,1.,4.8,160.,4.8,21.,4.8,8.,4.8
1979-07-12 15:21:55.480 ,0,0,1.,4.8,156.,4.8,21.,4.8,8.,4.8
1979-07-12 15:22:00.280 ,0,0,0.,4.8,136.,4.8,19.,4.8,5.,4.8
1979-07-12 15:22:05.080 ,0,0,0.,4.8,172.,4.8,20.,4.8,8.,4.8
1979-07-12 15:22:09.880 ,0,0,0.,4.8,168.,4.8,25.,4.8,4.,4.8
1979-07-12 15:22:14.680 ,0,0,0.,4.8,188.,4.8,27.,4.8,6.,4.8
1979-07-12 15:22:19.480 ,0,0,0.,4.8,208.,4.8,31.,4.8,7.,4.8
1979-07-12 15:22:24.280 ,2,0,0.,4.8,216.,4.8,38.,4.8,4.,4.8
1979-07-12 15:22:29.080 ,2,0,0.,4.8,216.,4.8,48.,4.8,8.,4.8
1979-07-12 15:22:33.880 ,2,0,1.,4.8,196.,4.8,15.,4.8,3.,4.8
1979-07-12 15:22:38.680 ,2,0,1.,4.8,192.,4.8,19.,4.8,8.,4.8
1979-07-12 15:22:43.480 ,2,0,1.,4.8,180.,4.8,16.,4.8,6.,4.8
1979-07-12 15:22:48.280 ,2,0,2.,4.8,164.,4.8,29.,4.8,9.,4.8
1979-07-12 15:22:53.080 ,2,0,1.,4.8,164.,4.8,20.,4.8,3.,4.8
1979-07-12 15:22:57.880 ,2,0,1.,4.8,200.,4.8,31.,4.8,5.,4.8
1979-07-12 15:23:02.680 ,2,0,0.,4.8,168.,4.8,29.,4.8,9.,4.8
1979-07-12 15:23:07.480 ,2,0,1.,4.8,164.,4.8,21.,4.8,6.,4.8
1979-07-12 15:23:12.280 ,1,0,0.,4.8,152.,4.8,17.,4.8,9.,4.8
1979-07-12 15:23:17.080 ,1,0,0.,4.8,140.,4.8,18.,4.8,4.,4.8
1979-07-12 15:23:21.880 ,1,0,0.,4.8,140.,4.8,27.,4.8,9.,4.8
1979-07-12 15:23:26.680 ,1,0,0.,4.8,136.,4.8,19.,4.8,4.,4.8
1979-07-12 15:23:31.480 ,1,0,0.,4.8,156.,4.8,25.,4.8,9.,4.8
1979-07-12 15:23:36.280 ,1,0,0.,4.8,144.,4.8,23.,4.8,3.,4.8
1979-07-12 15:23:41.080 ,1,0,0.,4.8,148.,4.8,18.,4.8,5.,4.8
1979-07-12 15:23:45.880 ,1,0,0.,4.8,136.,4.8,22.,4.8,5.,4.8
1979-07-12 15:23:50.680 ,1,0,0.,4.8,128.,4.8,22.,4.8,13.,4.8
1979-07-12 15:23:55.480 ,1,0,0.,4.8,136.,4.8,16.,4.8,6.,4.8
1979-07-12 15:24:00.280 ,0,0,0.,4.8,136.,4.8,23.,4.8,7.,4.8
1979-07-12 15:24:05.080 ,0,0,0.,4.8,112.,4.8,17.,4.8,10.,4.8
1979-07-12 15:24:09.880 ,0,0,2.,4.8,118.,4.8,15.,4.8,4.,4.8
1979-07-12 15:24:14.680 ,0,0,0.,4.8,140.,4.8,21.,4.8,6.,4.8
1979-07-12 15:24:19.480 ,0,0,0.,4.8,124.,4.8,23.,4.8,7.,4.8
1979-07-12 15:24:24.280 ,0,0,0.,4.8,124.,4.8,26.,4.8,6.,4.8
1979-07-12 15:24:29.080 ,0,0,0.,4.8,128.,4.8,17.,4.8,11.,4.8
1979-07-12 15:24:33.880 ,0,0,1.,4.8,126.,4.8,17.,4.8,8.,4.8
1979-07-12 15:24:38.680 ,0,0,0.,4.8,126.,4.8,22.,4.8,4.,4.8
1979-07-12 15:24:43.480 ,0,0,1.,4.8,120.,4.8,25.,4.8,4.,4.8
1979-07-12 15:24:48.280 ,0,0,2.,4.8,128.,4.8,10.,4.8,7.,4.8
1979-07-12 15:24:53.080 ,0,0,0.,4.8,108.,4.8,21.,4.8,8.,4.8
1979-07-12 15:24:57.880 ,0,0,0.,4.8,124.,4.8,22.,4.8,3.,4.8
1979-07-12 15:25:02.680 ,0,0,1.,4.8,96.,4.8,23.,4.8,12.,4.8
1979-07-12 15:25:07.480 ,0,0,0.,4.8,104.,4.8,18.,4.8,4.,4.8
1979-07-12 15:25:12.280 ,0,0,2.,4.8,120.,4.8,22.,4.8,11.,4.8
1979-07-12 15:25:17.080 ,0,0,0.,4.8,114.,4.8,16.,4.8,5.,4.8
1979-07-12 15:25:21.880 ,0,0,1.,4.8,120.,4.8,14.,4.8,9.,4.8
1979-07-12 15:25:26.680 ,0,0,1.,4.8,140.,4.8,13.,4.8,6.,4.8
1979-07-12 15:25:31.480 ,0,0,0.,4.8,106.,4.8,10.,4.8,10.,4.8
1979-07-12 15:25:36.280 ,1,0,0.,4.8,132.,4.8,19.,4.8,6.,4.8
1979-07-12 15:25:41.080 ,1,0,0.,4.8,96.,4.8,17.,4.8,8.,4.8
1979-07-12 15:25:45.880 ,1,0,0.,4.8,140.,4.8,11.,4.8,7.,4.8
1979-07-12 15:25:50.680 ,1,0,0.,4.8,128.,4.8,19.,4.8,12.,4.8
1979-07-12 15:25:55.480 ,1,0,0.,4.8,118.,4.8,18.,4.8,10.,4.8
1979-07-12 15:26:00.280 ,1,0,0.,4.8,116.,4.8,17.,4.8,9.,4.8
1979-07-12 15:26:05.080 ,1,0,0.,4.8,128.,4.8,14.,4.8,6.,4.8
1979-07-12 15:26:09.880 ,1,0,0.,4.8,114.,4.8,17.,4.8,11.,4.8
1979-07-12 15:26:14.680 ,1,0,0.,4.8,126.,4.8,22.,4.8,5.,4.8
1979-07-12 15:26:19.480 ,1,0,0.,4.8,122.,4.8,21.,4.8,8.,4.8
1979-07-12 15:26:24.280 ,2,0,0.,4.8,116.,4.8,12.,4.8,6.,4.8
1979-07-12 15:26:29.080 ,2,0,1.,4.8,132.,4.8,13.,4.8,8.,4.8
1979-07-12 15:26:33.880 ,2,0,0.,4.8,122.,4.8,18.,4.8,5.,4.8
1979-07-12 15:26:38.680 ,2,0,0.,4.8,128.,4.8,14.,4.8,7.,4.8
1979-07-12 15:26:43.480 ,2,0,0.,4.8,120.,4.8,22.,4.8,7.,4.8
1979-07-12 15:26:48.280 ,2,0,0.,4.8,144.,4.8,17.,4.8,7.,4.8
1979-07-12 15:26:53.080 ,2,0,1.,4.8,144.,4.8,15.,4.8,9.,4.8
1979-07-12 15:26:57.880 ,2,0,0.,4.8,156.,4.8,19.,4.8,9.,4.8
1979-07-12 15:27:02.680 ,2,0,2.,4.8,144.,4.8,23.,4.8,11.,4.8
1979-07-12 15:27:07.480 ,2,0,0.,4.8,172.,4.8,22.,4.8,7.,4.8
1979-07-12 15:27:12.280 ,3,0,1.,4.8,148.,4.8,26.,4.8,12.,4.8
1979-07-12 15:27:17.080 ,3,0,0.,4.8,122.,4.8,25.,4.8,5.,4.8
1979-07-12 15:27:21.880 ,3,0,0.,4.8,196.,4.8,23.,4.8,7.,4.8
1979-07-12 15:27:26.680 ,3,0,0.,4.8,204.,4.8,23.,4.8,12.,4.8
1979-07-12 15:27:31.480 ,3,0,1.,4.8,192.,4.8,25.,4.8,7.,4.8
1979-07-12 15:27:36.280 ,3,0,0.,4.8,184.,4.8,32.,4.8,8.,4.8
1979-07-12 15:27:41.080 ,3,0,0.,4.8,204.,4.8,25.,4.8,11.,4.8
1979-07-12 15:27:45.880 ,3,0,0.,4.8,204.,4.8,19.,4.8,14.,4.8
1979-07-12 15:27:50.680 ,3,0,0.,4.8,180.,4.8,38.,4.8,14.,4.8
1979-07-12 15:27:55.480 ,3,0,0.,4.8,172.,4.8,37.,4.8,11.,4.8
1979-07-12 15:28:00.280 ,4,0,0.,4.8,212.,4.8,29.,4.8,16.,4.8
1979-07-12 15:28:05.080 ,4,0,0.,4.8,200.,4.8,33.,4.8,13.,4.8
1979-07-12 15:28:09.880 ,4,0,0.,4.8,244.,4.8,41.,4.8,12.,4.8
1979-07-12 15:28:14.680 ,4,0,0.,4.8,224.,4.8,40.,4.8,15.,4.8
1979-07-12 15:28:19.480 ,4,0,0.,4.8,280.,4.8,41.,4.8,17.,4.8
1979-07-12 15:28:24.280 ,4,0,0.,4.8,288.,4.8,48.,4.8,13.,4.8
1979-07-12 15:28:29.080 ,4,0,2.,4.8,288.,4.8,40.,4.8,16.,4.8
1979-07-12 15:28:33.880 ,4,0,1.,4.8,280.,4.8,45.,4.8,13.,4.8
1979-07-12 15:28:38.680 ,4,0,0.,4.8,232.,4.8,47.,4.8,11.,4.8
1979-07-12 15:28:43.480 ,4,0,0.,4.8,296.,4.8,38.,4.8,8.,4.8
1979-07-12 15:28:48.280 ,5,0,0.,4.8,252.,4.8,39.,4.8,10.,4.8
1979-07-12 15:28:53.080 ,5,0,0.,4.8,252.,4.8,42.,4.8,9.,4.8
1979-07-12 15:28:57.880 ,5,0,0.,4.8,256.,4.8,34.,4.8,15.,4.8
1979-07-12 15:29:02.680 ,5,0,1.,4.8,252.,4.8,36.,4.8,17.,4.8
1979-07-12 15:29:07.480 ,5,0,1.,4.8,272.,4.8,47.,4.8,16.,4.8
1979-07-12 15:29:12.280 ,5,0,0.,4.8,256.,4.8,34.,4.8,18.,4.8
1979-07-12 15:29:17.080 ,5,0,0.,4.8,232.,4.8,36.,4.8,7.,4.8
1979-07-12 15:29:21.880 ,5,0,1.,4.8,228.,4.8,34.,4.8,5.,4.8
1979-07-12 15:29:26.680 ,5,0,0.,4.8,224.,4.8,32.,4.8,6.,4.8
1979-07-12 15:29:31.480 ,5,0,2.,4.8,236.,4.8,31.,4.8,4.,4.8
1979-07-12 15:29:36.280 ,6,0,1.,4.8,212.,4.8,29.,4.8,12.,4.8
1979-07-12 15:29:41.080 ,6,0,0.,4.8,184.,4.8,37.,4.8,13.,4.8
1979-07-12 15:29:45.880 ,6,0,0.,4.8,208.,4.8,31.,4.8,11.,4.8
1979-07-12 15:29:50.680 ,6,0,0.,4.8,164.,4.8,22.,4.8,13.,4.8
1979-07-12 15:29:55.480 ,6,0,0.,4.8,188.,4.8,22.,4.8,10.,4.8
1979-07-12 15:30:00.280 ,6,0,0.,4.8,220.,4.8,26.,4.8,3.,4.8
1979-07-12 15:30:05.080 ,6,0,0.,4.8,172.,4.8,40.,4.8,7.,4.8
1979-07-12 15:30:09.880 ,6,0,0.,4.8,172.,4.8,24.,4.8,9.,4.8
1979-07-12 15:30:14.680 ,6,0,1.,4.8,176.,4.8,26.,4.8,16.,4.8
1979-07-12 15:30:19.480 ,6,0,0.,4.8,172.,4.8,28.,4.8,11.,4.8
1979-07-12 15:30:24.280 ,7,0,0.,4.8,196.,4.8,34.,4.8,11.,4.8
1979-07-12 15:30:29.080 ,7,0,0.,4.8,172.,4.8,40.,4.8,4.,4.8
1979-07-12 15:30:33.880 ,7,0,0.,4.8,8.,4.8,2.,4.8,2.,4.8
1979-07-12 15:30:38.680 ,7,0,0.,4.8,2.,4.8,0.,4.8,0.,4.8
1979-07-12 15:30:43.480 ,7,0,0.,4.8,1.,4.8,0.,4.8,0.,4.8
1979-07-12 15:30:48.280 ,7,0,0.,4.8,4.,4.8,0.,4.8,0.,4.8
1979-07-12 15:30:53.080 ,7,0,0.,4.8,5.,4.8,0.,4.8,0.,4.8
1979-07-12 15:30:57.880 ,7,0,0.,4.8,3.,4.8,0.,4.8,0.,4.8
1979-07-12 15:31:02.680 ,7,0,0.,4.8,9.,4.8,1.,4.8,0.,4.8
1979-07-12 15:31:07.480 ,7,0,0.,4.8,2.,4.8,0.,4.8,0.,4.8
1979-07-12 15:31:12.280 ,3,1,0.,4.8,52.,4.8,7.,4.8,4.,4.8
1979-07-12 15:31:17.080 ,3,1,2.,4.8,196.,4.8,28.,4.8,11.,4.8
1979-07-12 15:31:21.880 ,3,1,2.,4.8,220.,4.8,34.,4.8,11.,4.8
1979-07-12 15:31:26.680 ,3,1,0.,4.8,200.,4.8,18.,4.8,10.,4.8
1979-07-12 15:31:31.480 ,3,1,0.,4.8,224.,4.8,29.,4.8,9.,4.8
1979-07-12 15:31:36.280 ,0,1,0.,4.8,256.,4.8,29.,4.8,5.,4.8
1979-07-12 15:31:41.080 ,0,1,1.,4.8,160.,4.8,26.,4.8,9.,4.8
1979-07-12 15:31:45.880 ,0,1,0.,4.8,172.,4.8,22.,4.8,15.,4.8
1979-07-12 15:31:50.680 ,0,1,0.,4.8,168.,4.8,18.,4.8,11.,4.8
1979-07-12 15:31:55.480 ,0,1,0.,4.8,144.,4.8,15.,4.8,6.,4.8
1979-07-12 15:32:00.280 ,4,1,0.,4.8,144.,4.8,20.,4.8,9.,4.8
1979-07-12 15:32:05.080 ,4,1,1.,4.8,140.,4.8,23.,4.8,15.,4.8
1979-07-12 15:32:09.880 ,4,1,0.,4.8,156.,4.8,34.,4.8,10.,4.8
1979-07-12 15:32:14.680 ,4,1,0.,4.8,168.,4.8,30.,4.8,8.,4.8
1979-07-12 15:32:19.480 ,4,1,0.,4.8,228.,4.8,38.,4.8,12.,4.8
1979-07-12 15:32:24.280 ,7,1,1.,4.8,196.,4.8,50.,4.8,16.,4.8
1979-07-12 15:32:29.080 ,7,1,4.,4.8,288.,4.8,76.,4.8,24.,4.8